Station Historical Data
Daily Summary for September 1, 2017 Units:  English    Metric   Both
« Previous Day
Next Day »
Daily Weekly Monthly Yearly Custom
  High: Low: Average:
Temperature: 81.1 °F 63.6 °F 73.9 °F
Dew Point: 70.7 °F 60.7 °F 67.1 °F
Humidity: 93% 61% 80%
Wind Speed: 1.0mph 0.0mph 0.2mph
Wind Gust: 6.0mph - -
Wind- - WNW
Pressure: 30.02 in 29.84 in -
Precipitation: 0.34 in    
Historical Graphs
 
 
Tabular Data for September 1, 2017
Time Temperature Dew Point Pressure Wind Wind Speed Wind Gust Humidity Rainfall Rate (Hourly) Conditions
00:00 73.0 °F 69.3 °F 29.92 in Calm   2.0 mph 88% 0.00 in RA
00:10 73.0 °F 69.2 °F 29.92 in Calm   1.0 mph 88% 0.00 in SCT
00:20 72.9 °F 69.1 °F 29.92 in Calm   1.0 mph 88% 0.00 in SCT
00:25 72.9 °F 69.1 °F 29.93 in Calm   1.0 mph 88% 0.00 in SCT
00:30 72.9 °F 69.1 °F 29.93 in Calm   1.0 mph 88% 0.00 in SCT
00:40 72.8 °F 69.0 °F 29.93 in Calm   1.0 mph 88% 0.00 in SCT
00:45 72.8 °F 69.4 °F 29.93 in Calm     89% 0.00 in SCT
00:50 72.8 °F 69.3 °F 29.92 in Calm     89% 0.00 in SCT
00:55 72.7 °F 69.3 °F 29.92 in Calm     89% 0.00 in SCT
01:00 72.7 °F 69.3 °F 29.92 in Calm   1.0 mph 89% 0.00 in SCT
01:10 72.7 °F 69.3 °F 29.91 in Calm   2.0 mph 89% 0.00 in BKN
01:15 72.6 °F 69.2 °F 29.91 in Calm   1.0 mph 89% 0.00 in BKN
01:20 72.6 °F 69.2 °F 29.91 in Calm     89% 0.00 in SCT
01:25 72.6 °F 69.2 °F 29.91 in Calm   1.0 mph 89% 0.00 in SCT
01:30 72.6 °F 69.2 °F 29.90 in Calm   1.0 mph 89% 0.00 in SCT
01:40 72.7 °F 69.3 °F 29.90 in Calm     89% 0.00 in SCT
01:45 72.7 °F 69.3 °F 29.90 in Calm   1.0 mph 89% 0.00 in SCT
01:50 72.7 °F 69.3 °F 29.90 in Calm   1.0 mph 89% 0.00 in SCT
01:55 72.7 °F 69.3 °F 29.90 in Calm   1.0 mph 89% 0.00 in SCT
02:00 72.8 °F 69.4 °F 29.90 in Calm   1.0 mph 89% 0.00 in SCT
02:05 72.8 °F 69.4 °F 29.90 in Calm   2.0 mph 89% 0.00 in SCT
02:10 72.9 °F 69.1 °F 29.90 in NW 1.0 mph 2.0 mph 88% 0.00 in SCT
02:15 73.0 °F 69.2 °F 29.90 in Calm   1.0 mph 88% 0.00 in SCT
02:20 73.0 °F 69.2 °F 29.90 in Calm   1.0 mph 88% 0.00 in BKN
02:25 73.0 °F 69.2 °F 29.90 in Calm   1.0 mph 88% 0.00 in BKN
02:30 73.0 °F 69.2 °F 29.90 in Calm   1.0 mph 88% 0.00 in BKN
02:40 73.0 °F 69.3 °F 29.89 in Calm   2.0 mph 88% 0.00 in BKN
02:45 73.1 °F 69.0 °F 29.89 in Calm   1.0 mph 87% 0.00 in BKN
02:50 73.0 °F 68.9 °F 29.89 in NW 1.0 mph 2.0 mph 87% 0.00 in BKN
02:55 73.0 °F 69.2 °F 29.89 in Calm   1.0 mph 88% 0.00 in BKN
03:00 73.0 °F 68.9 °F 29.89 in Calm   2.0 mph 87% 0.00 in BKN
03:05 73.0 °F 68.9 °F 29.89 in NW 1.0 mph 2.0 mph 87% 0.00 in SCT
03:10 73.1 °F 69.0 °F 29.89 in Calm   2.0 mph 87% 0.00 in SCT
03:15 73.0 °F 68.9 °F 29.89 in Calm   1.0 mph 87% 0.00 in SCT
03:20 73.1 °F 69.0 °F 29.88 in Calm   2.0 mph 87% 0.00 in SCT
03:25 73.1 °F 69.0 °F 29.88 in Calm   2.0 mph 87% 0.00 in SCT
03:30 73.0 °F 68.9 °F 29.88 in NW 1.0 mph 1.0 mph 87% 0.00 in SCT
03:40 73.0 °F 68.9 °F 29.87 in Calm   1.0 mph 87% 0.00 in SCT
03:45 73.1 °F 69.0 °F 29.87 in Calm   2.0 mph 87% 0.00 in SCT
03:50 73.1 °F 69.0 °F 29.87 in NNW 1.0 mph 2.0 mph 87% 0.00 in SCT
03:55 73.1 °F 69.0 °F 29.86 in Calm   2.0 mph 87% 0.00 in SCT
04:00 73.1 °F 69.0 °F 29.86 in Calm   2.0 mph 87% 0.00 in SCT
04:05 73.1 °F 69.0 °F 29.86 in Calm   2.0 mph 87% 0.00 in SCT
04:10 73.0 °F 68.6 °F 29.86 in NNW 1.0 mph 3.0 mph 86% 0.00 in SCT
04:15 73.1 °F 68.7 °F 29.86 in NNW 1.0 mph 2.0 mph 86% 0.00 in SCT
04:25 73.1 °F 68.7 °F 29.86 in Calm   2.0 mph 86% 0.00 in SCT
04:30 73.1 °F 68.7 °F 29.86 in Calm   1.0 mph 86% 0.00 in SCT
04:35 73.0 °F 68.9 °F 29.86 in Calm   2.0 mph 87% 0.00 in SCT
04:40 73.0 °F 68.9 °F 29.85 in Calm   2.0 mph 87% 0.00 in SCT
04:45 73.0 °F 68.9 °F 29.85 in Calm   2.0 mph 87% 0.00 in SCT
04:50 73.0 °F 68.6 °F 29.84 in WNW 1.0 mph 5.0 mph 86% 0.00 in SCT
04:55 73.1 °F 68.7 °F 29.84 in Calm   2.0 mph 86% 0.00 in SCT
05:00 73.1 °F 68.7 °F 29.84 in Calm   3.0 mph 86% 0.00 in SCT
05:05 73.0 °F 68.6 °F 29.85 in Calm   2.0 mph 86% 0.00 in SCT
05:10 72.9 °F 68.8 °F 29.85 in Calm   1.0 mph 87% 0.00 in SCT
05:15 72.9 °F 68.8 °F 29.85 in Calm   1.0 mph 87% 0.00 in SCT
05:20 72.9 °F 68.8 °F 29.84 in NW 1.0 mph 3.0 mph 87% 0.00 in FEW
05:25 72.9 °F 68.8 °F 29.84 in Calm   1.0 mph 87% 0.00 in FEW
05:30 72.9 °F 68.8 °F 29.84 in Calm   2.0 mph 87% 0.00 in FEW
05:35 72.9 °F 68.8 °F 29.85 in NW 1.0 mph 3.0 mph 87% 0.00 in FEW
05:45 73.0 °F 68.9 °F 29.85 in NW 1.0 mph 2.0 mph 87% 0.00 in FEW
05:50 73.0 °F 68.6 °F 29.85 in Calm   3.0 mph 86% 0.00 in SCT
05:55 73.1 °F 68.7 °F 29.85 in Calm   2.0 mph 86% 0.00 in SCT
06:00 73.1 °F 68.7 °F 29.85 in Calm   1.0 mph 86% 0.00 in SCT
06:05 73.1 °F 68.7 °F 29.86 in Calm   1.0 mph 86% 0.00 in BKN
06:10 73.0 °F 68.9 °F 29.86 in Calm   1.0 mph 87% 0.00 in BKN
06:15 73.0 °F 68.9 °F 29.86 in Calm   2.0 mph 87% 0.00 in BKN
06:20 73.0 °F 68.6 °F 29.86 in Calm   1.0 mph 86% 0.00 in BKN
06:25 73.1 °F 68.7 °F 29.85 in Calm   3.0 mph 86% 0.00 in BKN
06:30 73.1 °F 68.7 °F 29.85 in Calm   2.0 mph 86% 0.00 in BKN
06:35 73.2 °F 68.8 °F 29.85 in Calm   2.0 mph 86% 0.00 in BKN
06:40 73.2 °F 68.8 °F 29.85 in Calm   2.0 mph 86% 0.00 in BKN
06:45 73.2 °F 68.8 °F 29.85 in Calm   2.0 mph 86% 0.00 in BKN
06:50 73.3 °F 68.9 °F 29.86 in WNW 1.0 mph 2.0 mph 86% 0.00 in BKN
06:55 73.3 °F 68.8 °F 29.86 in NW 1.0 mph 3.0 mph 86% 0.00 in BKN
07:00 73.3 °F 68.9 °F 29.85 in Calm   2.0 mph 86% 0.00 in BKN
07:05 73.3 °F 68.8 °F 29.85 in Calm   3.0 mph 86% 0.00 in BKN
07:10 73.3 °F 68.9 °F 29.85 in NW 1.0 mph 2.0 mph 86% 0.00 in BKN
07:20 73.3 °F 68.9 °F 29.86 in Calm   3.0 mph 86% 0.00 in OVC
07:25 73.4 °F 69.0 °F 29.86 in NW 1.0 mph 2.0 mph 86% 0.00 in OVC
07:35 73.4 °F 69.0 °F 29.86 in NW 1.0 mph 3.0 mph 86% 0.00 in -RA
07:40 73.4 °F 69.0 °F 29.85 in NW 1.0 mph 3.0 mph 86% 0.00 in -RA
07:45 73.4 °F 69.0 °F 29.85 in Calm   3.0 mph 86% 0.00 in -RA
07:50 73.4 °F 69.0 °F 29.86 in Calm   2.0 mph 86% 0.00 in -RA
07:55 73.4 °F 69.0 °F 29.86 in Calm   2.0 mph 86% 0.00 in -RA
08:00 73.5 °F 69.1 °F 29.86 in WNW 1.0 mph 2.0 mph 86% 0.00 in -RA
08:05 73.6 °F 69.1 °F 29.86 in Calm   2.0 mph 86% 0.00 in -RA
08:10 73.5 °F 69.1 °F 29.86 in NW 1.0 mph 2.0 mph 86% 0.00 in -RA
08:15 73.4 °F 69.0 °F 29.86 in Calm   2.0 mph 86% 0.00 in -RA
08:20 73.3 °F 69.2 °F 29.86 in WNW 1.0 mph 3.0 mph 87% 0.00 in -RA
08:25 73.2 °F 69.1 °F 29.86 in Calm   2.0 mph 87% 0.00 in -RA
08:30 73.3 °F 69.2 °F 29.86 in Calm   2.0 mph 87% 0.00 in -RA
08:35 73.4 °F 69.3 °F 29.86 in Calm   3.0 mph 87% 0.00 in -RA
08:40 73.4 °F 69.3 °F 29.86 in NW 1.0 mph 3.0 mph 87% 0.00 in -RA
08:45 73.5 °F 69.3 °F 29.87 in NW 1.0 mph 2.0 mph 87% 0.00 in -RA
08:50 73.4 °F 69.6 °F 29.86 in Calm   2.0 mph 88% 0.00 in -RA
08:55 73.4 °F 70.0 °F 29.86 in Calm   3.0 mph 89% 0.03 in -RA
09:00 73.0 °F 69.5 °F 29.87 in Calm   1.0 mph 89% 0.11 in -RA
09:05 72.6 °F 69.5 °F 29.88 in Calm   1.0 mph 90% 0.10 in -RA
09:10 72.2 °F 69.1 °F 29.88 in Calm   1.0 mph 90% 0.06 in -RA
09:15 71.8 °F 69.0 °F 29.88 in Calm   1.0 mph 91% 0.01 in -RA
09:20 71.5 °F 68.7 °F 29.88 in Calm   5.0 mph 91% 0.00 in -RA
09:30 70.9 °F 68.4 °F 29.89 in Calm   1.0 mph 92% 0.00 in -RA
09:40 70.7 °F 68.3 °F 29.89 in Calm   3.0 mph 92% 0.00 in -RA
09:45 71.0 °F 68.9 °F 29.89 in Calm   1.0 mph 93% 0.00 in -RA
09:50 71.3 °F 69.1 °F 29.89 in Calm   1.0 mph 93% 0.00 in BKN
09:55 71.7 °F 69.6 °F 29.89 in NW 1.0 mph 2.0 mph 93% 0.00 in BKN
10:00 72.1 °F 70.0 °F 29.89 in Calm   2.0 mph 93% 0.00 in BKN
10:05 72.5 °F 70.0 °F 29.89 in Calm   2.0 mph 92% 0.00 in BKN
10:10 72.6 °F 69.5 °F 29.89 in Calm   2.0 mph 90% 0.00 in BKN
10:15 72.8 °F 70.0 °F 29.89 in Calm   2.0 mph 91% 0.00 in BKN
10:20 73.0 °F 70.3 °F 29.89 in Calm   2.0 mph 91% 0.00 in SCT
10:25 73.3 °F 70.2 °F 29.89 in Calm   2.0 mph 90% 0.00 in SCT
10:30 73.6 °F 70.5 °F 29.89 in Calm   1.0 mph 90% 0.00 in SCT
10:35 73.8 °F 70.7 °F 29.90 in Calm   1.0 mph 90% 0.00 in SCT
10:40 74.2 °F 70.7 °F 29.90 in NNW 1.0 mph 2.0 mph 89% 0.00 in SCT
10:45 74.4 °F 70.3 °F 29.90 in Calm   2.0 mph 87% 0.00 in SCT
10:50 74.7 °F 69.9 °F 29.90 in Calm   1.0 mph 85% 0.00 in SCT
10:55 75.0 °F 69.5 °F 29.90 in Calm   1.0 mph 83% 0.00 in SCT
11:00 75.4 °F 69.5 °F 29.90 in Calm   2.0 mph 82% 0.00 in SCT
11:05 75.6 °F 69.4 °F 29.90 in Calm   1.0 mph 81% 0.00 in SCT
11:10 76.0 °F 70.5 °F 29.90 in Calm   1.0 mph 83% 0.00 in SCT
11:15 76.4 °F 69.7 °F 29.90 in Calm   2.0 mph 80% 0.00 in SCT
11:20 76.2 °F 69.2 °F 29.90 in Calm   2.0 mph 79% 0.00 in BKN
11:25 76.2 °F 68.8 °F 29.90 in Calm   1.0 mph 78% 0.00 in BKN
11:30 76.4 °F 68.7 °F 29.90 in NNW 1.0 mph 5.0 mph 77% 0.00 in BKN
11:35 76.7 °F 68.6 °F 29.90 in Calm   3.0 mph 76% 0.00 in BKN
11:40 76.9 °F 68.0 °F 29.90 in North 1.0 mph 5.0 mph 74% 0.00 in BKN
11:45 77.2 °F 68.3 °F 29.90 in Calm   2.0 mph 74% 0.00 in BKN
11:50 77.6 °F 68.3 °F 29.90 in South 1.0 mph 5.0 mph 73% 0.00 in BKN
11:55 77.9 °F 67.7 °F 29.90 in NNW 1.0 mph 2.0 mph 71% 0.00 in BKN
12:00 78.1 °F 68.4 °F 29.90 in NNW 1.0 mph 2.0 mph 72% 0.00 in BKN
12:05 78.6 °F 68.0 °F 29.90 in WNW 1.0 mph 2.0 mph 70% 0.00 in BKN
12:10 79.1 °F 68.0 °F 29.89 in WNW 1.0 mph 2.0 mph 69% 0.00 in BKN
12:15 79.5 °F 68.4 °F 29.89 in Calm   3.0 mph 69% 0.00 in BKN
12:20 79.6 °F 68.1 °F 29.89 in Calm   2.0 mph 68% 0.00 in BKN
12:25 79.7 °F 67.3 °F 29.89 in SSE 1.0 mph 3.0 mph 66% 0.00 in BKN
12:30 79.5 °F 67.6 °F 29.89 in NNW 1.0 mph 2.0 mph 67% 0.00 in BKN
12:35 79.7 °F 68.2 °F 29.89 in NW 1.0 mph 5.0 mph 68% 0.00 in BKN
12:40 80.4 °F 68.5 °F 29.89 in Calm   1.0 mph 67% 0.00 in BKN
12:45 80.9 °F 67.1 °F 29.89 in North 1.0 mph 3.0 mph 63% 0.00 in BKN
12:50 80.6 °F 66.4 °F 29.89 in Calm   3.0 mph 62% 0.00 in BKN
12:55 80.5 °F 67.6 °F 29.89 in ENE 1.0 mph 5.0 mph 65% 0.00 in BKN
13:00 80.5 °F 68.0 °F 29.89 in Calm   2.0 mph 66% 0.00 in BKN
13:05 80.3 °F 67.9 °F 29.89 in WNW 1.0 mph 2.0 mph 66% 0.00 in BKN
13:10 80.0 °F 66.7 °F 29.89 in NW 1.0 mph 3.0 mph 64% 0.00 in BKN
13:15 79.9 °F 67.5 °F 29.89 in Calm   2.0 mph 66% 0.00 in BKN
13:20 79.8 °F 67.4 °F 29.89 in Calm   2.0 mph 66% 0.00 in BKN
13:25 79.5 °F 67.6 °F 29.89 in WNW 1.0 mph 3.0 mph 67% 0.00 in BKN
13:30 79.3 °F 66.6 °F 29.89 in Calm   3.0 mph 65% 0.00 in BKN
13:35 80.3 °F 67.0 °F 29.89 in NNW 1.0 mph 3.0 mph 64% 0.00 in BKN
13:40 80.8 °F 66.6 °F 29.88 in Calm   2.0 mph 62% 0.00 in BKN
13:45 80.6 °F 66.8 °F 29.89 in Calm   5.0 mph 63% 0.00 in BKN
13:50 80.2 °F 66.5 °F 29.88 in NW 1.0 mph 2.0 mph 63% 0.00 in BKN
13:55 79.6 °F 66.4 °F 29.89 in NW 1.0 mph 3.0 mph 64% 0.00 in BKN
14:00 79.7 °F 66.9 °F 29.88 in NNW 1.0 mph 3.0 mph 65% 0.00 in BKN
14:05 80.2 °F 66.0 °F 29.89 in Calm   3.0 mph 62% 0.00 in BKN
14:10 80.6 °F 66.4 °F 29.89 in NW 1.0 mph 5.0 mph 62% 0.00 in BKN
14:15 80.6 °F 67.7 °F 29.89 in Calm   3.0 mph 65% 0.00 in BKN
14:20 80.8 °F 67.0 °F 29.88 in NW 1.0 mph 6.0 mph 63% 0.00 in BKN
14:25 81.0 °F 66.7 °F 29.89 in WNW 1.0 mph 5.0 mph 62% 0.00 in BKN
14:30 81.1 °F 66.4 °F 29.89 in NW 1.0 mph 5.0 mph 61% 0.00 in BKN
14:35 81.0 °F 66.3 °F 29.89 in Calm   3.0 mph 61% 0.00 in BKN
14:40 81.1 °F 67.3 °F 29.88 in NNW 1.0 mph 3.0 mph 63% 0.00 in BKN
14:45 80.5 °F 66.3 °F 29.88 in Calm   3.0 mph 62% 0.00 in BKN
14:50 80.3 °F 65.6 °F 29.88 in NNW 1.0 mph 5.0 mph 61% 0.00 in BKN
14:55 79.4 °F 65.2 °F 29.88 in Calm   6.0 mph 62% 0.00 in BKN
15:00 78.8 °F 65.6 °F 29.89 in Calm   3.0 mph 64% 0.00 in BKN
15:05 78.6 °F 66.3 °F 29.88 in NW 1.0 mph 3.0 mph 66% 0.00 in BKN
15:10 78.7 °F 65.9 °F 29.89 in North 1.0 mph 5.0 mph 65% 0.00 in BKN
15:15 78.8 °F 66.5 °F 29.89 in Calm   2.0 mph 66% 0.00 in BKN
15:20 78.9 °F 66.6 °F 29.89 in NW 1.0 mph 2.0 mph 66% 0.00 in BKN
15:25 78.3 °F 65.6 °F 29.89 in Calm   6.0 mph 65% 0.00 in BKN
15:30 77.9 °F 65.7 °F 29.89 in Calm   2.0 mph 66% 0.00 in BKN
15:35 77.9 °F 65.2 °F 29.88 in Calm   5.0 mph 65% 0.00 in BKN
15:40 78.1 °F 66.2 °F 29.88 in Calm   6.0 mph 67% 0.00 in BKN
15:45 78.0 °F 66.2 °F 29.88 in Calm   2.0 mph 67% 0.00 in BKN
15:50 77.8 °F 65.5 °F 29.88 in Calm   3.0 mph 66% 0.00 in BKN
15:55 77.3 °F 65.5 °F 29.88 in Calm   2.0 mph 67% 0.00 in BKN
16:00 77.0 °F 66.0 °F 29.88 in Calm   1.0 mph 69% 0.00 in BKN
16:05 77.1 °F 65.7 °F 29.88 in WNW 1.0 mph 3.0 mph 68% 0.00 in BKN
16:10 77.5 °F 66.1 °F 29.88 in West 1.0 mph 6.0 mph 68% 0.00 in BKN
16:15 77.9 °F 66.5 °F 29.88 in Calm   6.0 mph 68% 0.00 in BKN
16:20 77.8 °F 65.5 °F 29.88 in Calm   3.0 mph 66% 0.00 in BKN
16:25 77.8 °F 65.5 °F 29.88 in WNW 1.0 mph 5.0 mph 66% 0.00 in BKN
16:30 78.0 °F 65.3 °F 29.88 in NW 1.0 mph 2.0 mph 65% 0.00 in BKN
16:35 78.1 °F 65.8 °F 29.88 in Calm   1.0 mph 66% 0.00 in BKN
16:40 77.9 °F 65.6 °F 29.88 in Calm   5.0 mph 66% 0.00 in BKN
16:45 77.5 °F 65.6 °F 29.88 in Calm   2.0 mph 67% 0.00 in BKN
16:50 77.2 °F 65.4 °F 29.88 in Calm   5.0 mph 67% 0.00 in BKN
17:00 77.5 °F 66.1 °F 29.88 in WNW 1.0 mph 3.0 mph 68% 0.00 in BKN
17:10 77.3 °F 65.1 °F 29.88 in NW 1.0 mph 2.0 mph 66% 0.00 in BKN
17:15 77.0 °F 65.2 °F 29.88 in NNW 1.0 mph 2.0 mph 67% 0.00 in BKN
17:20 76.6 °F 64.9 °F 29.89 in Calm   3.0 mph 67% 0.00 in BKN
17:25 76.6 °F 65.2 °F 29.89 in Calm   2.0 mph 68% 0.00 in BKN
17:30 76.5 °F 65.6 °F 29.89 in Calm   2.0 mph 69% 0.00 in BKN
17:35 76.7 °F 64.9 °F 29.89 in Calm   2.0 mph 67% 0.00 in BKN
17:40 76.9 °F 65.1 °F 29.89 in Calm   3.0 mph 67% 0.00 in BKN
17:45 76.9 °F 65.1 °F 29.89 in Calm   1.0 mph 67% 0.00 in BKN
17:50 76.8 °F 65.9 °F 29.89 in WNW 1.0 mph 5.0 mph 69% 0.00 in BKN
17:55 76.5 °F 64.8 °F 29.89 in Calm   1.0 mph 67% 0.00 in BKN
18:00 76.5 °F 65.1 °F 29.90 in Calm   2.0 mph 68% 0.00 in BKN
18:05 76.3 °F 64.1 °F 29.89 in Calm   2.0 mph 66% 0.00 in BKN
18:10 76.1 °F 64.8 °F 29.89 in Calm   2.0 mph 68% 0.00 in BKN
18:15 76.0 °F 65.1 °F 29.90 in Calm   2.0 mph 69% 0.00 in BKN
18:20 75.8 °F 64.9 °F 29.90 in Calm   1.0 mph 69% 0.00 in BKN
18:25 75.6 °F 64.7 °F 29.90 in Calm   1.0 mph 69% 0.00 in BKN
18:30 75.5 °F 65.0 °F 29.90 in Calm   2.0 mph 70% 0.00 in BKN
18:35 75.4 °F 64.9 °F 29.90 in Calm   1.0 mph 70% 0.00 in BKN
18:40 75.3 °F 64.8 °F 29.90 in Calm   1.0 mph 70% 0.00 in BKN
18:45 75.3 °F 64.4 °F 29.90 in Calm   1.0 mph 69% 0.00 in BKN
18:50 75.3 °F 64.8 °F 29.91 in Calm   1.0 mph 70% 0.00 in BKN
18:55 75.3 °F 64.4 °F 29.91 in Calm   3.0 mph 69% 0.00 in BKN
19:00 75.3 °F 64.8 °F 29.91 in Calm   1.0 mph 70% 0.00 in BKN
19:05 75.1 °F 64.6 °F 29.91 in Calm   1.0 mph 70% 0.00 in BKN
19:10 74.9 °F 64.9 °F 29.91 in Calm     71% 0.00 in BKN
19:15 74.7 °F 65.1 °F 29.92 in Calm     72% 0.00 in BKN
19:20 74.5 °F 64.9 °F 29.92 in NW 1.0 mph 2.0 mph 72% 0.00 in BKN
19:25 74.4 °F 64.8 °F 29.92 in Calm   1.0 mph 72% 0.00 in BKN
19:30 74.3 °F 64.7 °F 29.92 in Calm   1.0 mph 72% 0.00 in BKN
19:40 73.9 °F 64.7 °F 29.92 in Calm   1.0 mph 73% 0.00 in BKN
19:45 73.7 °F 64.9 °F 29.92 in Calm     74% 0.00 in BKN
19:50 73.6 °F 65.2 °F 29.92 in Calm     75% 0.00 in BKN
19:55 73.4 °F 65.0 °F 29.92 in Calm     75% 0.00 in BKN
20:00 73.2 °F 64.8 °F 29.92 in Calm     75% 0.00 in BKN
20:05 73.1 °F 65.0 °F 29.92 in Calm     76% 0.00 in BKN
20:10 72.8 °F 64.4 °F 29.93 in Calm   2.0 mph 75% 0.00 in BKN
20:15 72.9 °F 64.5 °F 29.94 in WNW 1.0 mph 3.0 mph 75% 0.00 in BKN
20:20 72.3 °F 64.6 °F 29.94 in SW 1.0 mph 5.0 mph 77% 0.00 in BKN
20:25 71.5 °F 65.0 °F 29.94 in Calm   2.0 mph 80% 0.00 in BKN
20:30 70.5 °F 65.1 °F 29.95 in Calm   2.0 mph 83% 0.00 in BKN
20:40 69.0 °F 65.0 °F 29.95 in Calm   2.0 mph 87% 0.00 in BKN
20:45 68.6 °F 64.9 °F 29.96 in Calm   1.0 mph 88% 0.01 in BKN
20:50 68.3 °F 64.6 °F 29.96 in Calm   1.0 mph 88% 0.00 in BKN
20:55 68.0 °F 64.7 °F 29.96 in Calm   1.0 mph 89% 0.00 in BKN
21:00 67.7 °F 64.4 °F 29.96 in Calm   2.0 mph 89% 0.00 in BKN
21:05 67.6 °F 64.6 °F 29.97 in Calm   1.0 mph 90% 0.00 in -RA
21:10 67.3 °F 64.0 °F 29.97 in Calm   1.0 mph 89% 0.00 in -RA
21:15 67.1 °F 64.1 °F 29.97 in Calm   1.0 mph 90% 0.00 in -RA
21:20 66.9 °F 63.9 °F 29.98 in Calm   1.0 mph 90% 0.00 in BKN
21:30 66.6 °F 63.6 °F 29.98 in Calm   2.0 mph 90% 0.00 in BKN
21:40 66.4 °F 63.4 °F 29.98 in Calm   1.0 mph 90% 0.00 in BKN
21:45 66.4 °F 63.7 °F 29.98 in Calm   1.0 mph 91% 0.00 in BKN
21:50 66.2 °F 63.2 °F 29.98 in Calm   1.0 mph 90% 0.00 in BKN
21:55 66.0 °F 63.0 °F 29.99 in Calm   1.0 mph 90% 0.00 in BKN
22:00 65.8 °F 62.8 °F 29.99 in West 1.0 mph 2.0 mph 90% 0.00 in BKN
22:05 65.8 °F 62.8 °F 29.99 in Calm   1.0 mph 90% 0.00 in BKN
22:10 65.7 °F 62.7 °F 29.99 in Calm   1.0 mph 90% 0.00 in BKN
22:15 65.6 °F 62.6 °F 29.99 in Calm   1.0 mph 90% 0.00 in BKN
22:20 65.6 °F 62.6 °F 29.99 in Calm   1.0 mph 90% 0.00 in SCT
22:25 65.5 °F 62.5 °F 29.99 in Calm   1.0 mph 90% 0.00 in SCT
22:30 65.4 °F 62.4 °F 29.99 in Calm   1.0 mph 90% 0.00 in SCT
22:40 65.0 °F 61.7 °F 30.00 in WNW 1.0 mph 2.0 mph 89% 0.00 in SCT
22:45 64.9 °F 61.6 °F 30.00 in Calm   1.0 mph 89% 0.00 in SCT
22:50 64.8 °F 61.5 °F 30.00 in Calm   1.0 mph 89% 0.00 in SCT
22:55 64.8 °F 61.5 °F 30.00 in Calm   1.0 mph 89% 0.00 in SCT
23:00 64.8 °F 61.5 °F 30.00 in Calm   1.0 mph 89% 0.00 in SCT
23:05 64.7 °F 61.4 °F 30.00 in Calm   1.0 mph 89% 0.00 in SCT
23:10 64.7 °F 61.4 °F 30.01 in Calm   1.0 mph 89% 0.00 in SCT
23:25 64.3 °F 61.0 °F 30.01 in Calm     89% 0.00 in SCT
23:30 64.1 °F 60.8 °F 30.01 in Calm     89% 0.00 in SCT
23:35 64.0 °F 61.0 °F 30.02 in Calm     90% 0.00 in SCT
23:40 63.9 °F 60.9 °F 30.01 in Calm     90% 0.00 in SCT
23:45 63.8 °F 60.8 °F 30.01 in Calm     90% 0.00 in SCT
23:50 63.7 °F 60.7 °F 30.01 in Calm     90% 0.00 in SCT
23:55 63.6 °F 60.9 °F 30.01 in Calm     91% 0.00 in SCT
Piedmont Bend
Compliments of Weather Underground - 4 mb